TimeCEST,TemperatureF,Dew PointF,Humidity,Sea Level PressureIn,VisibilityMPH,Wind Direction,Wind SpeedMPH,Gust SpeedMPH,PrecipitationIn,Events,Conditions,WindDirDegrees,DateUTC
12:15 AM,51.8,48.2,88,30.18,-9999.0,NNE,1.2,-,N/A,,Clear,20,2013-04-16 22:15:00
12:45 AM,51.8,48.2,88,30.18,-9999.0,ESE,2.3,-,N/A,,Clear,120,2013-04-16 22:45:00
1:15 AM,50.0,48.2,94,30.18,5.0,SSE,2.3,-,N/A,,Partly Cloudy,150,2013-04-16 23:15:00
1:45 AM,50.0,48.2,94,30.18,5.0,SSE,4.6,-,N/A,,Partly Cloudy,150,2013-04-16 23:45:00
2:00 AM,49,48,93,30.21,5,SSE,4.6,,,,Mist,150,2013-04-17 00:00:00
2:15 AM,48.2,46.4,93,30.18,5.0,SSE,4.6,-,N/A,,Partly Cloudy,150,2013-04-17 00:15:00
2:45 AM,48.2,46.4,93,30.18,5.0,ENE,2.3,-,N/A,,Partly Cloudy,70,2013-04-17 00:45:00
3:15 AM,46.4,46.4,100,30.18,5.0,East,2.3,-,N/A,,Partly Cloudy,80,2013-04-17 01:15:00
3:45 AM,48.2,46.4,93,30.18,4.3,ENE,2.3,-,N/A,Fog,Fog,70,2013-04-17 01:45:00
4:15 AM,48.2,46.4,93,30.18,4.3,ENE,3.5,-,N/A,Fog,Fog,60,2013-04-17 02:15:00
4:45 AM,48.2,46.4,93,30.18,4.3,ESE,4.6,-,N/A,,Partly Cloudy,120,2013-04-17 02:45:00
5:15 AM,48.2,46.4,93,30.18,4.3,ENE,2.3,-,N/A,,Partly Cloudy,60,2013-04-17 03:15:00
5:45 AM,48.2,46.4,93,30.18,4.3,East,1.2,-,N/A,,Partly Cloudy,90,2013-04-17 03:45:00
6:15 AM,48.2,46.4,93,30.18,5.0,South,2.3,-,N/A,,Partly Cloudy,190,2013-04-17 04:15:00
6:45 AM,48.2,46.4,93,30.18,5.6,SW,1.2,-,N/A,,Partly Cloudy,220,2013-04-17 04:45:00
7:15 AM,48.2,46.4,93,30.18,5.6,SE,2.3,-,N/A,,Partly Cloudy,140,2013-04-17 05:15:00
7:45 AM,50.0,46.4,87,30.21,6.2,ESE,2.3,-,N/A,,Partly Cloudy,110,2013-04-17 05:45:00
8:00 AM,49,47,89,30.22,6,ESE,2.3,,,,Scattered Clouds,110,2013-04-17 06:00:00
8:15 AM,50.0,48.2,94,30.21,6.2,ESE,4.6,-,N/A,,Partly Cloudy,110,2013-04-17 06:15:00
8:45 AM,53.6,50.0,88,30.21,-9999.0,ENE,2.3,-,N/A,,Clear,70,2013-04-17 06:45:00
9:15 AM,53.6,50.0,88,30.21,-9999.0,East,2.3,-,N/A,,Clear,100,2013-04-17 07:15:00
9:45 AM,57.2,51.8,82,30.21,-9999.0,ESE,3.5,-,N/A,,Clear,110,2013-04-17 07:45:00
10:15 AM,57.2,51.8,82,30.21,-9999.0,SE,3.5,-,N/A,,Clear,140,2013-04-17 08:15:00
10:45 AM,60.8,53.6,77,30.21,-9999.0,ESE,4.6,-,N/A,,Clear,120,2013-04-17 08:45:00
11:15 AM,62.6,53.6,72,30.21,-9999.0,ESE,5.8,-,N/A,,Clear,120,2013-04-17 09:15:00
11:45 AM,68.0,53.6,60,30.21,-9999.0,ESE,4.6,-,N/A,,Clear,120,2013-04-17 09:45:00
12:15 PM,68.0,51.8,56,30.21,-9999.0,ESE,6.9,-,N/A,,Clear,110,2013-04-17 10:15:00
12:45 PM,71.6,51.8,50,30.18,-9999.0,ESE,5.8,-,N/A,,Clear,110,2013-04-17 10:45:00
1:15 PM,73.4,50.0,44,30.18,-9999.0,ESE,5.8,-,N/A,,Clear,110,2013-04-17 11:15:00
1:45 PM,73.4,50.0,44,30.18,-9999.0,Variable,2.3,-,N/A,,Clear,0,2013-04-17 11:45:00
2:00 PM,73,50,34,30.20,7,,2.3,,,,,,2013-04-17 12:00:00
2:15 PM,73.4,48.2,41,30.18,-9999.0,South,2.3,-,N/A,,Clear,190,2013-04-17 12:15:00
2:45 PM,75.2,48.2,38,30.18,-9999.0,Variable,2.3,-,N/A,,Clear,0,2013-04-17 12:45:00
3:15 PM,75.2,48.2,38,30.18,-9999.0,WSW,11.5,-,N/A,,Clear,250,2013-04-17 13:15:00
3:45 PM,73.4,53.6,50,30.18,-9999.0,West,11.5,-,N/A,,Clear,260,2013-04-17 13:45:00
4:15 PM,73.4,59.0,61,30.18,-9999.0,West,12.7,-,N/A,,Clear,260,2013-04-17 14:15:00
4:45 PM,69.8,59.0,68,30.18,-9999.0,West,11.5,-,N/A,,Clear,260,2013-04-17 14:45:00
5:15 PM,69.8,59.0,68,30.18,-9999.0,West,11.5,-,N/A,,Clear,260,2013-04-17 15:15:00
5:45 PM,68.0,55.4,64,30.18,-9999.0,West,6.9,-,N/A,,Clear,260,2013-04-17 15:45:00
6:15 PM,68.0,55.4,64,30.18,-9999.0,West,6.9,-,N/A,,Clear,270,2013-04-17 16:15:00
6:45 PM,68.0,55.4,64,30.15,-9999.0,West,6.9,-,N/A,,Clear,280,2013-04-17 16:45:00
7:15 PM,68.0,55.4,64,30.15,-9999.0,West,5.8,-,N/A,,Clear,280,2013-04-17 17:15:00
7:45 PM,64.4,53.6,68,30.15,-9999.0,West,5.8,-,N/A,,Clear,270,2013-04-17 17:45:00
8:00 PM,65,53,57,30.18,9,West,5.8,,,,Clear,270,2013-04-17 18:00:00
8:15 PM,64.4,53.6,68,30.15,-9999.0,West,6.9,-,N/A,,Clear,260,2013-04-17 18:15:00
8:45 PM,60.8,53.6,77,30.15,-9999.0,WSW,4.6,-,N/A,,Clear,240,2013-04-17 18:45:00
9:15 PM,59.0,55.4,88,30.15,-9999.0,WSW,4.6,-,N/A,,Clear,240,2013-04-17 19:15:00
9:45 PM,57.2,55.4,94,30.15,-9999.0,SSW,3.5,-,N/A,,Clear,200,2013-04-17 19:45:00
10:45 PM,57.2,55.4,94,30.18,-9999.0,West,5.8,-,N/A,,Clear,280,2013-04-17 20:45:00
11:15 PM,55.4,53.6,94,30.18,-9999.0,West,5.8,-,N/A,,Clear,260,2013-04-17 21:15:00
11:45 PM,55.4,53.6,94,30.18,-9999.0,WSW,4.6,-,N/A,,Clear,240,2013-04-17 21:45:00